Regional Weather Roundup
Issued by NWS

Home | Current Version | Previous Version | Graphics & Text | Print | Product List | Glossary On
Versions: 1 2 3 4 5 6 7 8 9 10 11 12 13 14 15 16 17 18 19 20 21 22 23 24 25 26 27 28 29 30 31 32 33 34 35 36 37 38 39 40 41 42 43 44 45 46 47 48 49 50
000
ASUS43 KLOT 010100
RWRIL

ILLINOIS REGIONAL WEATHER ROUNDUP
NATIONAL WEATHER SERVICE CHICAGO/ROMEOVILLE IL
700 PM CST SAT FEB 28 2015

NOTE: "FAIR" INDICATES FEW OR NO CLOUDS BELOW 12,000 FEET WITH NO
SIGNIFICANT WEATHER AND/OR OBSTRUCTIONS TO VISIBILITY.

* THESE STATIONS ARE NOT UNDER NWS QUALITY CONTROL. THEY ALSO MAY NOT
  REPORT WEATHER SUCH AS PRECIPITATION OR FOG.

ILZ001-002-007-009-015-016-024-010200-
NORTHWEST ILLINOIS

CITY           SKY/WX    TMP DP  RH WIND       PRES   REMARKS
MOLINE         CLOUDY    17  10  74 E8        30.49F WCI   7
STERLING*      CLOUDY    16  12  86 E7        30.51S WCI   6
$$

ILZ003-004-008-010-011-017-018-010200-
NORTH CENTRAL ILLINOIS

CITY           SKY/WX    TMP DP  RH WIND       PRES   REMARKS
ROCKFORD       LGT SNOW  17   6  62 SE5       30.52F WCI  10
$$

ILZ005-006-012>014-019>023-010200-
NORTHEAST ILLINOIS

CITY           SKY/WX    TMP DP  RH WIND       PRES   REMARKS
CHICAGO-OHARE  CLOUDY    20   4  50 S8        30.53R WCI  10
CHICAGO-MIDWAY FLURRIES  21   9  59 S10       30.55R WCI  10
AURORA         LGT SNOW  19   9  65 SE9       30.53S WCI   8
WAUKEGAN       CLOUDY    20   8  60 SE10      30.52R WCI   9
DUPAGE AIRPORT LGT SNOW  18   9  68 S8        30.52S WCI   8
WHEELING       CLOUDY    20   7  57 SE7       30.55R WCI  11
NORTHERLY ISL    N/A     21   7  54 S9          N/A  WCI  11
$$

LMZ740>746-010200-
SOUTHERN LAKE MICHIGAN

STATION/POSITION SKY/WX   TEMP    WIND        PRES    VSBY  WAVE
                          AIR SEA DIR/SP/G                  HT/PER
                          (F)     (DEG/KT/KT) (MB)    (MI)  (FT/S)
WAUKEGAN HARBOR            21     160/ 11/ 13   N/A
HARRISON CRIB              20     120/ 13/ 15   N/A
BURNHAM HARBOR             21     170/  9/ 11   N/A
CALUMET HARBOR             21     130/  6/  9 1032.9R
MICHIGAN CITY              20      70/  8/  9   N/A
$$

ILZ025>027-034>036-040-047-049-050-058-095>099-010200-
WEST-CENTRAL ILLINOIS

CITY           SKY/WX    TMP DP  RH WIND       PRES   REMARKS
QUINCY         LGT SNOW  20  17  88 SE7       30.45F FOG     WCI  11
$$

ILZ028>032-037-038-041>044-048-051>054-059>061-010200-
CENTRAL ILLINOIS

CITY           SKY/WX    TMP DP  RH WIND       PRES   REMARKS
DECATUR        LGT SNOW  21  18  88 E7        30.51R VSB 1   WCI  12
PEORIA         LGT SNOW  22  17  81 SE6       30.51S WCI  14
SPRINGFIELD    LGT SNOW  22  18  85 SE10      30.50S VSB 1   WCI  11
TAYLORVILLE    NOT AVBL
$$

ILZ033-039-045-046-055>057-062-063-010200-
EAST-CENTRAL ILLINOIS

CITY           SKY/WX    TMP DP  RH WIND       PRES   REMARKS
CHAMPAIGN      LGT SNOW  21  18  88 E8        30.51R VSB 3/4 WCI  11
MATTOON        SNOW      22  19  89 E3        30.49S VSB 1/2
$$

ILZ079-100>102-010200-
SOUTHWEST ILLINOIS

CITY           SKY/WX    TMP DP  RH WIND       PRES   REMARKS
BELLEVILLE     LGT SNOW  25  25  99 E2        30.49S VSB 1
CAHOKIA*       LGT SNOW  26  24  92 CALM      30.50R VSB 3/4
$$

ILZ064>066-069>071-074>076-080>082-084>086-088>090-092>094-010200-
SOUTH-CENTRAL ILLINOIS

CITY           SKY/WX    TMP DP  RH WIND       PRES   REMARKS
CARBONDALE     CLOUDY    29  22  75 N7        30.49R WCI  22
MT. VERNON     CLOUDY    27  21  80 CALM      30.51R
$$

ILZ067-068-072-073-078-083-087-091-010200-
SOUTHEAST ILLINOIS

CITY           SKY/WX    TMP DP  RH WIND       PRES   REMARKS
LAWRENCEVILLE  LGT SNOW  26  24  92 NE8       30.52R VSB 3/4 WCI  18
$$

ABBREVIATIONS USED IN REMARKS
   TC - TEMPERATURE IN CELSIUS
  WCI - WIND CHILL INDEX
   HX - HEAT INDEX
  VSB - VISIBILITY
$$



USA.gov is the U.S. government's official web portal to all federal, state and local government web resources and services.